Вернуться в каталог

DELTA 1 DEB

АктивенSSO
NORAD 7018·DEBRIS·🇺🇸 United States

Запущен Nov 6, 1973 с Vandenberg Space Force Base

Loading…

Ближайшие Пролёты (ближайшие 24 часа)

TLE

СвежийSource: Space-Track

Эпоха: Sep 14, 2026, 12:43 UTC

1 07018U 73086J   26257.52999845 -.00000030  00000-0  12619-3 0  9999
2 07018 102.3177 279.3248 0011579 281.6613 232.8533 12.39213247389509

Отслеживайте DELTA 1 DEB в реальном времени с AllMySat

Download on the App Store